When you browse on this site, cookies collect data to enhance your experience and personalize the content and advertising you see.
Visit our Privacy Policy to learn more. By continuing to use the site, you agree to this use of cookies and data.
  • In Portugal
  • List of Countries
  • For 7 days
  • Water Temperature
  • Satellite Maps
  • Weather Map
  • Weather Widgets
  • user-avatar
    Login

    Hourly Weather Dobrich

    Today, 25 March, Monday

    Time Temperature Precipitation Wind Pressure Humidity
    00:00 +3°C° 0 mm 3 mps 741 mmHg 69%
    01:00 +3°C° 0 mm 3 mps 741 mmHg 69%
    02:00 +3°C° 0 mm 3 mps 740 mmHg 68%
    03:00 +3°C° 0 mm 3 mps 740 mmHg 67%
    04:00 +3°C° 0 mm 3 mps 740 mmHg 67%
    05:00 +3°C° 0 mm 3 mps 739 mmHg 66%
    06:00 +4°C° 0 mm 3 mps 739 mmHg 62%
    07:00 +7°C° 0 mm 3 mps 739 mmHg 58%
    08:00 +8°C° 0 mm 3 mps 739 mmHg 54%
    09:00 +10°C° 0 mm 4 mps 739 mmHg 49%
    10:00 +12°C° 0 mm 4 mps 738 mmHg 44%
    11:00 +15°C° 0 mm 5 mps 738 mmHg 39%
    12:00 +15°C° 0 mm 5 mps 738 mmHg 39%
    13:00 +16°C° 0 mm 5 mps 737 mmHg 39%
    14:00 +17°C° 0 mm 5 mps 737 mmHg 39%
    15:00 +16°C° 0 mm 5 mps 736 mmHg 42%
    16:00 +15°C° 0 mm 5 mps 736 mmHg 46%
    17:00 +14°C° 0 mm 6 mps 735 mmHg 50%
    18:00 +12°C° 0 mm 5 mps 735 mmHg 54%
    19:00 +10°C° 0 mm 5 mps 735 mmHg 59%
    20:00 +8°C° 0 mm 5 mps 735 mmHg 63%
    21:00 +7°C° 0 mm 4 mps 735 mmHg 66%
    22:00 +7°C° 0 mm 4 mps 735 mmHg 69%
    23:00 +7°C° 0 mm 4 mps 734 mmHg 72%

    Tomorrow, 26 March, Tuesday

    Time Temperature Precipitation Wind Pressure Humidity
    00:00 +7°C° 0 mm 4 mps 734 mmHg 74%
    01:00 +7°C° 0 mm 3 mps 735 mmHg 76%
    02:00 +7°C° 0 mm 3 mps 735 mmHg 77%
    03:00 +7°C° 0 mm 3 mps 734 mmHg 77%
    04:00 +7°C° 0 mm 3 mps 734 mmHg 77%
    05:00 +6°C° 0 mm 2 mps 734 mmHg 76%
    06:00 +8°C° 0 mm 2 mps 735 mmHg 72%
    07:00 +9°C° 0 mm 2 mps 735 mmHg 67%
    08:00 +11°C° 0 mm 1 mps 736 mmHg 63%
    09:00 +13°C° 0 mm 2 mps 736 mmHg 57%
    10:00 +14°C° 0 mm 2 mps 737 mmHg 52%
    11:00 +16°C° 0 mm 3 mps 737 mmHg 47%
    12:00 +16°C° 0 mm 3 mps 737 mmHg 49%
    13:00 +17°C° 0 mm 4 mps 738 mmHg 51%
    14:00 +16°C° 0 mm 5 mps 738 mmHg 52%
    15:00 +14°C° 0.2 mm 6 mps 738 mmHg 60%
    16:00 +11°C° 0.2 mm 6 mps 738 mmHg 68%
    17:00 +9°C° 0.2 mm 7 mps 738 mmHg 77%
    18:00 +8°C° 0.2 mm 6 mps 739 mmHg 78%
    19:00 +8°C° 0.2 mm 5 mps 740 mmHg 79%
    20:00 +7°C° 0.2 mm 4 mps 740 mmHg 80%
    21:00 +7°C° 0.3 mm 4 mps 740 mmHg 81%
    22:00 +6°C° 0.3 mm 4 mps 741 mmHg 82%
    23:00 +6°C° 0.3 mm 4 mps 741 mmHg 84%

    Day after tomorrow, 27 March, Wednesday

    Time Temperature Precipitation Wind Pressure Humidity
    00:00 +7°C° 0 mm 3 mps 741 mmHg 83%
    01:00 +7°C° 0 mm 3 mps 741 mmHg 82%
    02:00 +7°C° 0 mm 3 mps 742 mmHg 81%
    03:00 +5°C° 0 mm 3 mps 742 mmHg 82%
    04:00 +4°C° 0 mm 3 mps 742 mmHg 84%
    05:00 +4°C° 0 mm 3 mps 742 mmHg 85%
    06:00 +4°C° 0 mm 3 mps 742 mmHg 78%
    07:00 +5°C° 0 mm 3 mps 743 mmHg 71%
    08:00 +7°C° 0 mm 2 mps 743 mmHg 64%
    09:00 +9°C° 0 mm 3 mps 744 mmHg 56%
    10:00 +10°C° 0 mm 3 mps 744 mmHg 49%
    11:00 +12°C° 0 mm 4 mps 745 mmHg 42%
    12:00 +12°C° 0 mm 4 mps 745 mmHg 40%
    13:00 +12°C° 0 mm 3 mps 745 mmHg 39%
    14:00 +13°C° 0 mm 3 mps 745 mmHg 37%
    15:00 +12°C° 0 mm 3 mps 745 mmHg 40%
    16:00 +11°C° 0 mm 3 mps 745 mmHg 43%
    17:00 +11°C° 0 mm 3 mps 745 mmHg 45%
    18:00 +9°C° 0 mm 3 mps 746 mmHg 51%
    19:00 +7°C° 0 mm 3 mps 746 mmHg 57%
    20:00 +5°C° 0 mm 3 mps 747 mmHg 63%
    21:00 +5°C° 0 mm 2 mps 747 mmHg 67%
    22:00 +5°C° 0 mm 2 mps 747 mmHg 71%
    23:00 +4°C° 0 mm 2 mps 748 mmHg 75%

    28 March, Thursday

    Time Temperature Precipitation Wind Pressure Humidity
    00:00 +4°C° 0 mm 2 mps 748 mmHg 77%
    01:00 +4°C° 0 mm 2 mps 748 mmHg 80%
    02:00 +3°C° 0 mm 2 mps 748 mmHg 82%
    03:00 +3°C° 0 mm 2 mps 748 mmHg 78%
    04:00 +3°C° 0 mm 2 mps 748 mmHg 74%
    05:00 +3°C° 0 mm 2 mps 748 mmHg 70%
    06:00 +2°C° 0 mm 3 mps 749 mmHg 64%
    07:00 +3°C° 0 mm 3 mps 749 mmHg 58%
    08:00 +4°C° 0 mm 4 mps 749 mmHg 52%
    09:00 +5°C° 0 mm 4 mps 750 mmHg 49%
    10:00 +6°C° 0 mm 4 mps 750 mmHg 45%
    11:00 +8°C° 0 mm 4 mps 750 mmHg 42%
    12:00 +8°C° 0 mm 5 mps 750 mmHg 41%
    13:00 +8°C° 0 mm 5 mps 750 mmHg 41%
    14:00 +8°C° 0 mm 5 mps 749 mmHg 40%
    15:00 +8°C° 0 mm 5 mps 749 mmHg 42%
    16:00 +7°C° 0 mm 5 mps 749 mmHg 44%
    17:00 +6°C° 0 mm 5 mps 749 mmHg 45%
    18:00 +5°C° 0 mm 5 mps 749 mmHg 53%
    19:00 +3°C° 0 mm 4 mps 749 mmHg 61%
    20:00 +2°C° 0 mm 3 mps 749 mmHg 69%
    21:00 +2°C° 0 mm 3 mps 749 mmHg 68%
    22:00 +1°C° 0 mm 3 mps 750 mmHg 68%
    23:00 +1°C° 0 mm 3 mps 750 mmHg 68%

    29 March, Friday

    Time Temperature Precipitation Wind Pressure Humidity
    00:00 +1°C° 0 mm 3 mps 750 mmHg 66%
    01:00 0°C° 0 mm 3 mps 749 mmHg 65%
    02:00 0°C° 0 mm 3 mps 749 mmHg 63%
    03:00 0°C° 0 mm 3 mps 749 mmHg 65%
    04:00 0°C° 0 mm 3 mps 749 mmHg 67%
    05:00 -2°C° 0 mm 4 mps 749 mmHg 68%
    06:00 -1°C° 0 mm 4 mps 750 mmHg 64%
    07:00 +1°C° 0 mm 5 mps 750 mmHg 59%
    08:00 +2°C° 0 mm 6 mps 750 mmHg 55%
    09:00 +3°C° 0 mm 6 mps 750 mmHg 52%
    10:00 +4°C° 0 mm 6 mps 750 mmHg 49%
    11:00 +5°C° 0 mm 6 mps 750 mmHg 45%
    12:00 +5°C° 0 mm 6 mps 750 mmHg 45%
    13:00 +6°C° 0 mm 7 mps 750 mmHg 45%
    14:00 +6°C° 0 mm 7 mps 749 mmHg 45%
    15:00 +5°C° 0 mm 7 mps 749 mmHg 46%
    16:00 +5°C° 0 mm 7 mps 748 mmHg 48%
    17:00 +4°C° 0 mm 7 mps 748 mmHg 49%
    18:00 +3°C° 0 mm 6 mps 748 mmHg 55%
    19:00 +1°C° 0 mm 5 mps 748 mmHg 61%
    20:00 +1°C° 0 mm 3 mps 748 mmHg 67%
    21:00 +1°C° 0 mm 3 mps 748 mmHg 68%
    22:00 0°C° 0 mm 3 mps 748 mmHg 69%
    23:00 +1°C° 0 mm 2 mps 747 mmHg 70%

    30 March, Saturday

    Time Temperature Precipitation Wind Pressure Humidity
    00:00 0°C° 0 mm 3 mps 747 mmHg 71%
    01:00 0°C° 0 mm 3 mps 747 mmHg 71%
    02:00 -1°C° 0 mm 3 mps 746 mmHg 71%
    03:00 -1°C° 0 mm 3 mps 746 mmHg 71%
    04:00 -2°C° 0 mm 4 mps 746 mmHg 70%
    05:00 -2°C° 0 mm 4 mps 746 mmHg 70%
    06:00 -1°C° 0 mm 5 mps 746 mmHg 63%
    07:00 +1°C° 0 mm 5 mps 746 mmHg 57%
    08:00 +2°C° 0 mm 6 mps 746 mmHg 51%
    09:00 +4°C° 0 mm 6 mps 745 mmHg 48%
    10:00 +5°C° 0 mm 6 mps 745 mmHg 44%
    11:00 +8°C° 0 mm 7 mps 745 mmHg 41%
    12:00 +9°C° 0 mm 7 mps 744 mmHg 41%
    13:00 +9°C° 0 mm 8 mps 744 mmHg 41%
    14:00 +10°C° 0 mm 8 mps 743 mmHg 42%
    15:00 +9°C° 0 mm 8 mps 743 mmHg 44%
    16:00 +8°C° 0 mm 7 mps 742 mmHg 46%
    17:00 +8°C° 0 mm 7 mps 742 mmHg 49%
    18:00 +7°C° 0 mm 6 mps 742 mmHg 54%
    19:00 +5°C° 0 mm 5 mps 741 mmHg 60%
    20:00 +4°C° 0 mm 4 mps 741 mmHg 65%
    21:00 +4°C° 0 mm 4 mps 741 mmHg 66%
    22:00 +4°C° 0 mm 4 mps 741 mmHg 68%
    23:00 +4°C° 0 mm 4 mps 740 mmHg 69%
    Show more